Regional Weather Roundup
Issued by NWS

Home | Current Version | Previous Version | Text Only | Print | Product List | Glossary On
Versions: 1 2 3 4 5 6 7 8 9 10 11 12 13 14 15 16 17 18 19 20 21 22 23 24 25 26 27 28 29 30 31 32 33 34 35 36 37 38 39 40 41 42 43 44 45 46 47 48 49 50
000
ASUS44 KJAN 230610
RWRMS

MISSISSIPPI HOURLY WEATHER ROUNDUP
NATIONAL WEATHER SERVICE JACKSON MS
100 AM CDT SAT MAY 23 2015

NOTE: "FAIR: INDICATES FEW OR NO CLOUDS BELOW 12,000 FEET WITH NO
SIGNIFICANT WEATHER AND/OR OBSTRUCTIONS TO VISIBILITY.

MSZ001>002-007>008-010>013-018>021-025>028-034>036-230700-
NORTHWEST MISSISSIPPI

CITY           SKY/WX    TMP DP  RH WIND       PRES   REMARKS
CLARKSDALE     FAIR      63  57  82 CALM      30.21F
CLEVELAND      FAIR      62  57  85 E5        30.21S
GREENWOOD      CLEAR     60  53  77 E5        30.21S
6HR MIN TEMP:  58; 6HR MAX TEMP:  75;

GREENVILLE     PTCLDY    65  55  70 E6        30.19S
6HR MIN TEMP:  64; 6HR MAX TEMP:  75;

OLIVE BRANCH   CLEAR     61  54  77 E5        30.24F
OXFORD         FAIR      54  50  87 CALM      30.24F
TUNICA         MOCLDY    61  54  77 E6        30.22F
$$

MSZ003>006-009-014>017-022>024-029>033-037>039-230700-
NORTHEAST MISSISSIPPI

CITY           SKY/WX    TMP DP  RH WIND       PRES   REMARKS
COLUMBUS AFB   CLEAR     54  45  72 CALM      30.22S
6HR MIN TEMP:  54; 6HR MAX TEMP:  77;

CORINTH        FAIR      54  52  94 CALM      30.24R
GOLDN TRIANGLE CLEAR     57  54  88 CALM      30.21F
STARKVILLE     FAIR      54  52  94 CALM      30.22S
TUPELO         CLEAR     56  52  86 CALM      30.23S
6HR MIN TEMP:  56; 6HR MAX TEMP:  73;

$$

MSZ040-058-230700-
CENTRAL MISSISSIPPI

CITY           SKY/WX    TMP DP  RH WIND       PRES   REMARKS
JACKSON INTL   CLEAR     66  54  65 E6        30.19F
6HR MIN TEMP:  64; 6HR MAX TEMP:  76;

JACKSON HAWKNS CLEAR     66  55  67 E5        30.20S
6HR MIN TEMP:  65; 6HR MAX TEMP:  76;

MERIDIAN KEY   CLEAR     58  55  90 CALM      30.21F
6HR MIN TEMP:  57; 6HR MAX TEMP:  74;

MERIDIAN NAS   CLEAR     57  54  89 CALM      30.21F
6HR MIN TEMP:  57; 6HR MAX TEMP:  75;

RAYMOND          N/A    N/A N/A N/A MISG        N/A
VICKSBURG      CLEAR     63  60  90 CALM      30.18F
6HR MIN TEMP:  63; 6HR MAX TEMP:  76;

$$

MSZ059>079-230700-
SOUTH MISSISSIPPI

CITY           SKY/WX    TMP DP  RH WIND       PRES   REMARKS
BROOKHAVEN     FAIR      64  61  88 CALM      30.20F
HATTIESBURG    CLEAR     68  59  73 CALM      30.20F
6HR MIN TEMP:  68; 6HR MAX TEMP:  79;

MCCOMB         PTCLDY    68  64  87 NE3       30.18F
6HR MIN TEMP:  68; 6HR MAX TEMP:  78;

NATCHEZ        CLEAR     66  59  77 E6        30.18F
6HR MIN TEMP:  64; 6HR MAX TEMP:  75;

PINE BELT      CLEAR     64  55  72 N6        30.20F
6HR MIN TEMP:  64; 6HR MAX TEMP:  77;

$$

MSZ080>082-230700-
COASTAL MISSISSIPPI

CITY           SKY/WX    TMP DP  RH WIND       PRES   REMARKS
BILOXI         CLOUDY    73  63  69 E6        30.17F
6HR MIN TEMP:  73; 6HR MAX TEMP:  78;

PASCAGOULA     CLOUDY    70  63  78 NE3       30.18F
6HR MIN TEMP:  67; 6HR MAX TEMP:  81;

GULFPORT       CLOUDY    73  63  70 NE5       30.17F
6HR MIN TEMP:  72; 6HR MAX TEMP:  79;

$$


USA.gov is the U.S. government's official web portal to all federal, state and local government web resources and services.